Time,TemperatureF,DewpointF,PressureIn,WindDirection,WindDirectionDegrees,WindSpeedMPH,WindSpeedGustMPH,Humidity,HourlyPrecipIn,Conditions,Clouds,dailyrainin,SoftwareType,DateUTC
2013-07-11 00:00:00,78.0,73.0,-100.00,West,262,0.0,9.0,85,0.00,,,-99.99,,2013-07-11 04:00:00,
2013-07-11 00:32:00,78.0,73.0,-100.00,West,262,0.0,9.0,85,0.00,,,-99.99,,2013-07-11 04:32:00,
2013-07-11 00:43:00,78.0,73.0,-100.00,West,262,0.0,9.0,85,0.00,,,-99.99,,2013-07-11 04:43:00,
2013-07-11 00:53:00,78.0,73.0,-100.00,West,262,0.0,9.0,85,0.00,,,-99.99,,2013-07-11 04:53:00,
2013-07-11 01:00:00,77.0,73.0,-100.00,SSW,206,2.0,7.0,87,0.00,,,-99.99,,2013-07-11 05:00:00,
2013-07-11 01:32:00,77.0,73.0,-100.00,SSW,206,2.0,7.0,87,0.00,,,-99.99,,2013-07-11 05:32:00,
2013-07-11 01:43:00,77.0,73.0,-100.00,SSW,206,2.0,7.0,87,0.00,,,-99.99,,2013-07-11 05:43:00,
2013-07-11 01:52:00,77.0,73.0,-100.00,SSW,206,2.0,7.0,87,0.00,,,-99.99,,2013-07-11 05:52:00,
2013-07-11 02:00:00,77.0,72.0,-100.00,West,259,3.0,7.0,85,0.00,,,-99.99,,2013-07-11 06:00:00,
2013-07-11 02:32:00,77.0,72.0,-100.00,West,259,3.0,7.0,85,0.00,,,-99.99,,2013-07-11 06:32:00,
2013-07-11 02:43:00,77.0,72.0,-100.00,West,259,3.0,7.0,85,0.00,,,-99.99,,2013-07-11 06:43:00,
2013-07-11 02:53:00,77.0,72.0,-100.00,West,259,3.0,7.0,85,0.00,,,-99.99,,2013-07-11 06:53:00,
2013-07-11 03:00:00,77.0,70.0,-100.00,SW,236,5.0,9.0,78,0.00,,,-99.99,,2013-07-11 07:00:00,
2013-07-11 03:32:00,77.0,70.0,-100.00,SW,236,5.0,9.0,78,0.00,,,-99.99,,2013-07-11 07:32:00,
2013-07-11 03:45:00,77.0,70.0,-100.00,SW,236,5.0,9.0,78,0.00,,,-99.99,,2013-07-11 07:45:00,
2013-07-11 03:53:00,77.0,70.0,-100.00,SW,236,5.0,9.0,78,0.00,,,-99.99,,2013-07-11 07:53:00,
2013-07-11 04:00:00,77.0,69.0,-100.00,SSW,198,5.0,11.0,76,0.00,,,-99.99,,2013-07-11 08:00:00,
2013-07-11 04:34:00,77.0,69.0,-100.00,SSW,198,5.0,11.0,76,0.00,,,-99.99,,2013-07-11 08:34:00,
2013-07-11 04:43:00,77.0,69.0,-100.00,SSW,198,5.0,11.0,76,0.00,,,-99.99,,2013-07-11 08:43:00,
2013-07-11 04:53:00,77.0,69.0,-100.00,SSW,198,5.0,11.0,76,0.00,,,-99.99,,2013-07-11 08:53:00,
2013-07-11 05:00:00,76.0,69.0,-100.00,WSW,258,6.0,11.0,79,0.00,,,-99.99,,2013-07-11 09:00:00,
2013-07-11 05:33:00,76.0,69.0,-100.00,WSW,258,6.0,11.0,79,0.00,,,-99.99,,2013-07-11 09:33:00,
2013-07-11 05:43:00,76.0,69.0,-100.00,WSW,258,6.0,11.0,79,0.00,,,-99.99,,2013-07-11 09:43:00,
2013-07-11 05:53:00,76.0,69.0,-100.00,WSW,258,6.0,11.0,79,0.00,,,-99.99,,2013-07-11 09:53:00,
2013-07-11 06:00:00,76.0,70.0,-100.00,WSW,241,5.0,11.0,83,0.00,,,-99.99,,2013-07-11 10:00:00,
2013-07-11 06:33:00,76.0,70.0,-100.00,WSW,241,5.0,11.0,83,0.00,,,-99.99,,2013-07-11 10:33:00,
2013-07-11 06:43:00,76.0,70.0,-100.00,WSW,241,5.0,11.0,83,0.00,,,-99.99,,2013-07-11 10:43:00,
2013-07-11 06:52:00,76.0,70.0,-100.00,WSW,241,5.0,11.0,83,0.00,,,-99.99,,2013-07-11 10:52:00,
2013-07-11 07:00:00,74.0,71.0,-100.00,SW,228,5.0,11.0,88,0.01,,,-99.99,,2013-07-11 11:00:00,
2013-07-11 07:33:00,74.0,71.0,-100.00,SW,228,5.0,11.0,88,0.01,,,-99.99,,2013-07-11 11:33:00,
2013-07-11 07:43:00,74.0,71.0,-100.00,SW,228,5.0,11.0,88,0.01,,,-99.99,,2013-07-11 11:43:00,
2013-07-11 07:53:00,74.0,71.0,-100.00,SW,228,5.0,11.0,88,0.01,,,-99.99,,2013-07-11 11:53:00,
2013-07-11 08:00:00,75.0,71.0,-100.00,South,176,2.0,10.0,88,0.00,,,-99.99,,2013-07-11 12:00:00,
2013-07-11 08:33:00,75.0,71.0,-100.00,South,176,2.0,10.0,88,0.00,,,-99.99,,2013-07-11 12:33:00,
2013-07-11 08:43:00,75.0,71.0,-100.00,South,176,2.0,10.0,88,0.00,,,-99.99,,2013-07-11 12:43:00,
2013-07-11 08:57:00,75.0,71.0,-100.00,South,176,2.0,10.0,88,0.00,,,-99.99,,2013-07-11 12:57:00,
2013-07-11 09:00:00,74.0,72.0,-100.00,WSW,244,6.0,10.0,94,0.06,,,-99.99,,2013-07-11 13:00:00,
2013-07-11 09:35:00,74.0,72.0,-100.00,WSW,244,6.0,10.0,94,0.06,,,-99.99,,2013-07-11 13:35:00,
2013-07-11 09:47:00,74.0,72.0,-100.00,WSW,244,6.0,10.0,94,0.06,,,-99.99,,2013-07-11 13:47:00,
2013-07-11 09:55:00,74.0,72.0,-100.00,WSW,244,6.0,10.0,94,0.06,,,-99.99,,2013-07-11 13:55:00,
2013-07-11 10:00:00,73.0,72.0,-100.00,SW,233,0.0,9.0,94,0.05,,,-99.99,,2013-07-11 14:00:00,
2013-07-11 10:36:00,73.0,72.0,-100.00,SW,233,0.0,9.0,94,0.05,,,-99.99,,2013-07-11 14:36:00,
2013-07-11 10:47:00,73.0,72.0,-100.00,SW,233,0.0,9.0,94,0.05,,,-99.99,,2013-07-11 14:47:00,
2013-07-11 10:55:00,73.0,72.0,-100.00,SW,233,0.0,9.0,94,0.05,,,-99.99,,2013-07-11 14:55:00,
2013-07-11 11:00:00,75.0,72.0,-100.00,SW,229,4.0,7.0,92,0.01,,,-99.99,,2013-07-11 15:00:00,
2013-07-11 11:48:00,75.0,72.0,-100.00,SW,229,4.0,7.0,92,0.01,,,-99.99,,2013-07-11 15:48:00,
2013-07-11 11:59:00,75.0,72.0,-100.00,SW,229,4.0,7.0,92,0.01,,,-99.99,,2013-07-11 15:59:00,
2013-07-11 12:00:00,77.0,73.0,-100.00,WSW,244,3.0,9.0,89,0.00,,,-99.99,,2013-07-11 16:00:00,
2013-07-11 12:36:00,77.0,73.0,-100.00,WSW,244,3.0,9.0,89,0.00,,,-99.99,,2013-07-11 16:36:00,
2013-07-11 12:49:00,77.0,73.0,-100.00,WSW,244,3.0,9.0,89,0.00,,,-99.99,,2013-07-11 16:49:00,
2013-07-11 12:56:00,77.0,73.0,-100.00,WSW,244,3.0,9.0,89,0.00,,,-99.99,,2013-07-11 16:56:00,
2013-07-11 13:00:00,77.0,72.0,-100.00,WSW,257,0.0,5.0,86,0.00,,,-99.99,,2013-07-11 17:00:00,
2013-07-11 13:40:00,77.0,72.0,-100.00,WSW,257,0.0,5.0,86,0.00,,,-99.99,,2013-07-11 17:40:00,
2013-07-11 13:50:00,77.0,72.0,-100.00,WSW,257,0.0,5.0,86,0.00,,,-99.99,,2013-07-11 17:50:00,
2013-07-11 13:57:00,77.0,72.0,-100.00,WSW,257,0.0,5.0,86,0.00,,,-99.99,,2013-07-11 17:57:00,
2013-07-11 14:00:00,79.0,71.0,-100.00,NW,321,0.0,7.0,76,0.01,,,-99.99,,2013-07-11 18:00:00,
2013-07-11 14:56:00,79.0,71.0,-100.00,NW,321,0.0,7.0,76,0.01,,,-99.99,,2013-07-11 18:56:00,
2013-07-11 15:00:00,83.0,69.0,-100.00,SSW,205,3.0,8.0,63,0.00,,,-99.99,,2013-07-11 19:00:00,
2013-07-11 15:47:00,83.0,69.0,-100.00,SSW,205,3.0,8.0,63,0.00,,,-99.99,,2013-07-11 19:47:00,
2013-07-11 15:58:00,83.0,69.0,-100.00,SSW,205,3.0,8.0,63,0.00,,,-99.99,,2013-07-11 19:58:00,
2013-07-11 16:00:00,83.0,67.0,-100.00,West,269,0.0,6.0,58,0.00,,,-99.99,,2013-07-11 20:00:00,
2013-07-11 16:40:00,83.0,67.0,-100.00,West,269,0.0,6.0,58,0.00,,,-99.99,,2013-07-11 20:40:00,
2013-07-11 16:50:00,83.0,67.0,-100.00,West,269,0.0,6.0,58,0.00,,,-99.99,,2013-07-11 20:50:00,
2013-07-11 16:56:00,83.0,67.0,-100.00,West,269,0.0,6.0,58,0.00,,,-99.99,,2013-07-11 20:56:00,
2013-07-11 17:00:00,84.0,67.0,-100.00,NNE,33,0.0,5.0,56,0.00,,,-99.99,,2013-07-11 21:00:00,
2013-07-11 17:46:00,84.0,67.0,-100.00,NNE,33,0.0,5.0,56,0.00,,,-99.99,,2013-07-11 21:46:00,
2013-07-11 17:59:00,84.0,67.0,-100.00,NNE,33,0.0,5.0,56,0.00,,,-99.99,,2013-07-11 21:59:00,
2013-07-11 18:00:00,80.0,70.0,-100.00,ESE,106,2.0,8.0,72,0.00,,,-99.99,,2013-07-11 22:00:00,
2013-07-11 18:36:00,80.0,70.0,-100.00,ESE,106,2.0,8.0,72,0.00,,,-99.99,,2013-07-11 22:36:00,
2013-07-11 18:49:00,80.0,70.0,-100.00,ESE,106,2.0,8.0,72,0.00,,,-99.99,,2013-07-11 22:49:00,
2013-07-11 18:55:00,80.0,70.0,-100.00,ESE,106,2.0,8.0,72,0.00,,,-99.99,,2013-07-11 22:55:00,
2013-07-11 19:00:00,78.0,70.0,-100.00,SSE,168,3.0,8.0,77,0.00,,,-99.99,,2013-07-11 23:00:00,
2013-07-11 19:37:00,78.0,70.0,-100.00,SSE,168,3.0,8.0,77,0.00,,,-99.99,,2013-07-11 23:37:00,
2013-07-11 19:47:00,78.0,70.0,-100.00,SSE,168,3.0,8.0,77,0.00,,,-99.99,,2013-07-11 23:47:00,
2013-07-11 20:00:00,77.0,71.0,-100.00,SW,217,0.0,5.0,81,0.00,,,-99.99,,2013-07-12 00:00:00,
2013-07-11 20:37:00,77.0,71.0,-100.00,SW,217,0.0,5.0,81,0.00,,,-99.99,,2013-07-12 00:37:00,
2013-07-11 20:46:00,77.0,71.0,-100.00,SW,217,0.0,5.0,81,0.00,,,-99.99,,2013-07-12 00:46:00,
2013-07-11 20:58:00,77.0,71.0,-100.00,SW,217,0.0,5.0,81,0.00,,,-99.99,,2013-07-12 00:58:00,
2013-07-11 21:00:00,77.0,72.0,-100.00,SSE,149,0.0,5.0,85,0.00,,,-99.99,,2013-07-12 01:00:00,
2013-07-11 21:38:00,77.0,72.0,-100.00,SSE,149,0.0,5.0,85,0.00,,,-99.99,,2013-07-12 01:38:00,
2013-07-11 21:49:00,77.0,72.0,-100.00,SSE,149,0.0,5.0,85,0.00,,,-99.99,,2013-07-12 01:49:00,
2013-07-11 21:56:00,77.0,72.0,-100.00,SSE,149,0.0,5.0,85,0.00,,,-99.99,,2013-07-12 01:56:00,
2013-07-11 22:00:00,75.0,71.0,-100.00,SW,230,0.0,0.0,87,0.00,,,-99.99,,2013-07-12 02:00:00,
2013-07-11 22:36:00,75.0,71.0,-100.00,SW,230,0.0,0.0,87,0.00,,,-99.99,,2013-07-12 02:36:00,
2013-07-11 22:46:00,75.0,71.0,-100.00,SW,230,0.0,0.0,87,0.00,,,-99.99,,2013-07-12 02:46:00,
2013-07-11 23:00:00,76.0,69.0,-100.00,WSW,244,0.0,3.0,80,0.00,,,-99.99,,2013-07-12 03:00:00,
2013-07-11 23:38:00,76.0,69.0,-100.00,WSW,244,0.0,3.0,80,0.00,,,-99.99,,2013-07-12 03:38:00,
2013-07-11 23:57:00,76.0,69.0,-100.00,WSW,244,0.0,3.0,80,0.00,,,-99.99,,2013-07-12 03:57:00,